Lake Powell Weather Center

Moon Phase Calendar



Lake Powell Water Level
Online Cameras

 


      

Current Conditions in Clay Hills Crossing
5/21/2022 5:49:46 AM

45°F
Feels Like 42
Clear
Humidity
40%
Pressure
29.97"
Wind
4.7 mph (NNW)
Dew Point
23°F
UV Index
0/10 (Low)
Visibility
6 mi

Hourly Forecast

Date & Time Sat, May 21
5:00 AM
Sat, May 21
6:00 AM
Sat, May 21
7:00 AM
Sat, May 21
8:00 AM
Sat, May 21
9:00 AM
Sat, May 21
10:00 AM
Sat, May 21
11:00 AM
Sat, May 21
12:00 PM
Sat, May 21
1:00 PM
Sat, May 21
2:00 PM
Sat, May 21
3:00 PM
Sat, May 21
4:00 PM
Sat, May 21
5:00 PM
Sat, May 21
6:00 PM
Sat, May 21
7:00 PM
Sat, May 21
8:00 PM
Sat, May 21
9:00 PM
Sat, May 21
10:00 PM
Sat, May 21
11:00 PM
Sun, May 22
12:00 AM
Sun, May 22
1:00 AM
Sun, May 22
2:00 AM
Sun, May 22
3:00 AM
Sun, May 22
4:00 AM
Sun, May 22
5:00 AM
Sun, May 22
6:00 AM
Sun, May 22
7:00 AM
Sun, May 22
8:00 AM
Sun, May 22
9:00 AM
Sun, May 22
10:00 AM
Sun, May 22
11:00 AM
Sun, May 22
12:00 PM
Sun, May 22
1:00 PM
Sun, May 22
2:00 PM
Sun, May 22
3:00 PM
Sun, May 22
4:00 PM
Sun, May 22
5:00 PM
Sun, May 22
6:00 PM
Sun, May 22
7:00 PM
Sun, May 22
8:00 PM
Sun, May 22
9:00 PM
Sun, May 22
10:00 PM
Sun, May 22
11:00 PM
Mon, May 23
12:00 AM
Mon, May 23
1:00 AM
Mon, May 23
2:00 AM
Mon, May 23
3:00 AM
Mon, May 23
4:00 AM
Condition
Clear

Clear

Clear

Clear

Clear

Clear

Clear

Clear

Clear

Clouds

Clouds

Clouds

Clear

Clear

Clear

Clear

Clear

Clear

Clear

Clouds

Clouds

Clouds

Clouds

Clouds

Clouds

Clouds

Clouds

Clouds

Clouds

Clouds

Clouds

Clouds

Clouds

Clouds

Clouds

Clouds

Clouds

Clouds

Clouds

Clouds

Clouds

Clouds

Clouds

Clouds

Clouds

Clouds

Clouds

Clouds
Temperature 45°F45°F45°F47°F50°F53°F58°F60°F62°F64°F65°F67°F68°F69°F68°F66°F61°F60°F58°F57°F56°F55°F54°F52°F51°F50°F54°F58°F61°F64°F68°F72°F76°F79°F80°F82°F82°F81°F79°F77°F74°F73°F69°F67°F65°F63°F61°F60°F
Feels Like 42°F42°F42°F43°F45°F49°F54°F57°F59°F60°F62°F64°F65°F66°F66°F63°F57°F56°F55°F53°F52°F51°F50°F48°F47°F46°F50°F55°F58°F61°F65°F69°F74°F79°F78°F79°F80°F79°F79°F75°F72°F70°F66°F64°F62°F60°F58°F57°F
Cloudiness 3%3%3%3%2%1%2%3%4%14%12%11%9%8%1%9%6%6%6%14%82%70%60%55%55%60%93%96%98%98%83%69%15%35%35%51%61%67%100%100%100%100%100%100%100%100%100%100%
Visibility 6 mi6 mi6 mi6 mi6 mi6 mi6 mi6 mi6 mi6 mi6 mi6 mi6 mi6 mi6 mi6 mi6 mi6 mi6 mi6 mi6 mi6 mi6 mi6 mi6 mi6 mi6 mi6 mi6 mi6 mi6 mi6 mi6 mi6 mi6 mi6 mi6 mi6 mi6 mi6 mi6 mi6 mi6 mi6 mi6 mi6 mi6 mi6 mi
Precipitation 0%0%0%0%0%0%0%0%0%0%0%0%0%0%0%0%0%0%0%0%0%0%0%0%0%0%0%0%0%0%0%0%0%0%0%0%0%0%0%0%0%0%0%0%0%0%0%0%
Humidity 40%40%39%35%28%23%17%15%14%13%13%12%12%12%13%14%16%17%18%18%18%18%18%19%20%21%20%15%14%13%12%11%9%9%10%9%9%9%9%10%12%13%14%15%16%17%18%19%
Dew Point 23°F23°F23°F22°F19°F18°F13°F12°F12°F12°F12°F13°F14°F14°F14°F15°F14°F14°F14°F13°F13°F12°F11°F11°F11°F12°F14°F11°F11°F12°F13°F14°F14°F15°F18°F18°F19°F17°F16°F16°F17°F18°F18°F18°F17°F17°F17°F17°F
Pressure 29.97"29.97"29.97"30"30"30"30"29.97"29.97"29.94"29.91"29.88"29.85"29.83"29.83"29.83"29.85"29.88"29.91"29.94"29.94"29.97"29.97"29.97"29.97"29.97"30"30"30"29.97"29.94"29.91"29.85"29.83"29.77"29.74"29.68"29.68"29.71"29.71"29.74"29.77"29.8"29.8"29.83"29.85"29.88"29.88"
Wind Speed 5.6 mph4.7 mph5.1 mph8.4 mph10.6 mph11.8 mph11.5 mph9.8 mph6.8 mph4 mph1.9 mph2.8 mph4.3 mph5.6 mph7.5 mph6.6 mph4.8 mph4.9 mph5.6 mph5.9 mph5.5 mph6 mph5.9 mph4.3 mph3 mph2.2 mph1.5 mph0.9 mph1.4 mph2.2 mph3.4 mph5.3 mph8.3 mph14.2 mph16 mph18.1 mph20.7 mph25.8 mph21.5 mph19.8 mph18.6 mph13.9 mph6.5 mph4.3 mph5.3 mph7.3 mph6.3 mph5.8 mph
Wind
Direction
343°
NNW
330°
NNW
332°
NNW

N
26°
NNE
33°
NNE
35°
NE
35°
NE
31°
NNE
30°
NNE
50°
NE
102°
ESE
104°
ESE
99°
E
111°
ESE
109°
ESE
91°
E
36°
NE
11°
N
353°
N
352°
N
337°
NNW
331°
NNW
325°
NW
306°
NW
286°
WNW
279°
W
261°
W
175°
S
169°
S
181°
S
204°
SSW
216°
SW
227°
SW
218°
SW
225°
SW
251°
WSW
264°
W
261°
W
259°
W
259°
W
268°
W
305°
NW
330°
NNW
335°
NNW
338°
NNW
339°
NNW
336°
NNW

Daily Forecast

Date High Low Precip. Humidity
Today
May 21

Clear
69 °F
45 °F
0%
14%
Sunday
May 22

Clouds
82 °F
50 °F
0%
9%
Monday
May 23

Clouds
77 °F
59 °F
0%
16%
Tuesday
May 24

Clouds
80 °F
54 °F
0%
11%
Wednesday
May 25

Clear
83 °F
52 °F
0%
15%
Thursday
May 26

Clouds
92 °F
60 °F
0%
9%
Friday
May 27

Clouds
86 °F
66 °F
3%
13%
Saturday
May 28

Clear
83 °F
53 °F
0%
21%
Sunday
May 29

Clouds
87 °F
54 °F
0%
16%
Monday
May 30

Clouds
89 °F
58 °F
0%
15%
Tuesday
May 31

Clear
95 °F
62 °F
0%
12%
Wednesday
Jun 1

Clouds
88 °F
65 °F
0%
14%
Thursday
Jun 2

Rain
82 °F
64 °F
44%
28%
Friday
Jun 3

Rain
84 °F
64 °F
40%
22%
Saturday
Jun 4

Clear
87 °F
58 °F
0%
22%
Sunday
Jun 5

Clear
90 °F
59 °F
0%
23%

Temperature 8-14 Day Outlook



Precipitation 8-14 Day Outlook




Quick Links
Lake Powell News
Lake Powell Photos
Lake Powell Videos




About Us
Contact Us
Site Map
Search Site
Advertise With Us
   
Powell.USLakes.info
THE LAKE POWELL WEBSITE

Copyright 2022, Lakes Online
Privacy    |    Legal